Time,TemperatureF,DewpointF,PressureIn,WindDirection,WindDirectionDegrees,WindSpeedMPH,WindSpeedGustMPH,Humidity,HourlyPrecipIn,Conditions,Clouds,dailyrainin,SoftwareType,DateUTC
2013-09-13 00:01:00,63.1,54.3,30.07,NE,38,0.0,0.0,73,0.00,,,0.00,VWS V14.01,2013-09-13 05:01:00,
2013-09-13 00:06:00,63.0,54.2,30.07,NE,38,0.0,0.0,73,0.00,,,0.00,VWS V14.01,2013-09-13 05:06:00,
2013-09-13 00:11:00,63.0,53.1,30.07,NE,38,0.0,0.0,70,0.00,,,0.00,VWS V14.01,2013-09-13 05:11:00,
2013-09-13 00:16:00,63.1,53.6,30.07,NE,38,0.0,0.0,71,0.00,,,0.00,VWS V14.01,2013-09-13 05:16:00,
2013-09-13 00:21:00,63.1,53.9,30.07,NE,38,0.0,0.0,72,0.00,,,0.00,VWS V14.01,2013-09-13 05:21:00,
2013-09-13 00:26:00,63.0,54.2,30.07,NE,38,0.0,0.0,73,0.00,,,0.00,VWS V14.01,2013-09-13 05:26:00,
2013-09-13 00:31:00,62.9,54.1,30.07,NE,38,0.0,0.0,73,0.00,,,0.00,VWS V14.01,2013-09-13 05:31:00,
2013-09-13 00:36:00,62.7,53.9,30.07,NE,38,0.0,0.0,73,0.00,,,0.00,VWS V14.01,2013-09-13 05:36:00,
2013-09-13 00:41:00,62.6,53.8,30.07,NE,38,0.0,0.0,73,0.00,,,0.00,VWS V14.01,2013-09-13 05:41:00,
2013-09-13 00:46:00,62.4,53.6,30.07,NE,38,0.0,0.0,73,0.00,,,0.00,VWS V14.01,2013-09-13 05:46:00,
2013-09-13 00:51:00,62.2,53.1,30.07,NE,38,0.0,0.0,72,0.00,,,0.00,VWS V14.01,2013-09-13 05:51:00,
2013-09-13 00:56:00,62.1,53.3,30.07,NE,38,0.0,0.0,73,0.00,,,0.00,VWS V14.01,2013-09-13 05:56:00,
2013-09-13 01:01:00,61.9,53.5,30.07,NE,38,0.0,0.0,74,0.00,,,0.00,VWS V14.01,2013-09-13 06:01:00,
2013-09-13 01:06:00,61.7,53.3,30.07,NE,38,0.0,0.0,74,0.00,,,0.00,VWS V14.01,2013-09-13 06:06:00,
2013-09-13 01:11:00,61.6,53.2,30.07,NE,38,0.0,0.0,74,0.00,,,0.00,VWS V14.01,2013-09-13 06:11:00,
2013-09-13 01:16:00,61.4,53.0,30.07,NE,38,0.0,0.0,74,0.00,,,0.00,VWS V14.01,2013-09-13 06:16:00,
2013-09-13 01:21:00,61.2,53.2,30.07,NE,38,0.0,0.0,75,0.00,,,0.00,VWS V14.01,2013-09-13 06:21:00,
2013-09-13 01:26:00,61.0,53.0,30.07,NE,38,0.0,0.0,75,0.00,,,0.00,VWS V14.01,2013-09-13 06:26:00,
2013-09-13 01:31:00,60.8,53.2,30.07,NE,38,0.0,0.0,76,0.00,,,0.00,VWS V14.01,2013-09-13 06:31:00,
2013-09-13 01:36:00,60.7,53.5,30.08,NE,38,0.0,0.0,77,0.00,,,0.00,VWS V14.01,2013-09-13 06:36:00,
2013-09-13 01:41:00,60.5,53.3,30.08,NE,38,0.0,0.0,77,0.00,,,0.00,VWS V14.01,2013-09-13 06:41:00,
2013-09-13 01:46:00,60.3,53.1,30.08,NE,38,0.0,0.0,77,0.00,,,0.00,VWS V14.01,2013-09-13 06:46:00,
2013-09-13 01:51:00,60.1,53.2,30.08,NE,38,0.0,0.0,78,0.00,,,0.00,VWS V14.01,2013-09-13 06:51:00,
2013-09-13 01:56:00,59.9,53.0,30.08,NE,38,0.0,0.0,78,0.00,,,0.00,VWS V14.01,2013-09-13 06:56:00,
2013-09-13 02:01:00,59.6,53.1,30.08,NE,38,0.0,0.0,79,0.00,,,0.00,VWS V14.01,2013-09-13 07:01:00,
2013-09-13 02:06:00,59.5,53.0,30.08,NE,38,0.0,0.0,79,0.00,,,0.00,VWS V14.01,2013-09-13 07:06:00,
2013-09-13 02:11:00,59.3,52.8,30.08,NE,38,0.0,0.0,79,0.00,,,0.00,VWS V14.01,2013-09-13 07:11:00,
2013-09-13 02:16:00,59.1,52.9,30.08,NE,38,0.0,0.0,80,0.00,,,0.00,VWS V14.01,2013-09-13 07:16:00,
2013-09-13 02:21:00,58.9,52.8,30.08,NE,38,0.0,0.0,80,0.00,,,0.00,VWS V14.01,2013-09-13 07:21:00,
2013-09-13 02:26:00,58.7,52.6,30.08,NE,38,0.0,0.0,80,0.00,,,0.00,VWS V14.01,2013-09-13 07:26:00,
2013-09-13 02:31:00,58.5,52.7,30.08,NE,38,0.0,0.0,81,0.00,,,0.00,VWS V14.01,2013-09-13 07:31:00,
2013-09-13 02:36:00,58.3,52.5,30.08,NE,38,0.0,0.0,81,0.00,,,0.00,VWS V14.01,2013-09-13 07:36:00,
2013-09-13 02:41:00,58.1,52.3,30.08,NE,38,0.0,0.0,81,0.00,,,0.00,VWS V14.01,2013-09-13 07:41:00,
2013-09-13 02:46:00,57.9,52.5,30.08,NE,38,0.0,0.0,82,0.00,,,0.00,VWS V14.01,2013-09-13 07:46:00,
2013-09-13 02:51:00,57.7,52.2,30.08,NE,38,0.0,0.0,82,0.00,,,0.00,VWS V14.01,2013-09-13 07:51:00,
2013-09-13 02:56:00,57.6,52.5,30.09,NE,38,0.0,0.0,83,0.00,,,0.00,VWS V14.01,2013-09-13 07:56:00,
2013-09-13 03:01:00,57.4,52.3,30.09,NE,38,0.0,0.0,83,0.00,,,0.00,VWS V14.01,2013-09-13 08:01:00,
2013-09-13 03:06:00,57.3,52.2,30.09,NE,38,0.0,0.0,83,0.00,,,0.00,VWS V14.01,2013-09-13 08:06:00,
2013-09-13 03:11:00,57.2,52.4,30.09,NE,38,0.0,0.0,84,0.00,,,0.00,VWS V14.01,2013-09-13 08:11:00,
2013-09-13 03:16:00,57.1,52.3,30.09,NE,38,0.0,0.0,84,0.00,,,0.00,VWS V14.01,2013-09-13 08:16:00,
2013-09-13 03:21:00,56.9,52.4,30.09,NE,38,0.0,0.0,85,0.00,,,0.00,VWS V14.01,2013-09-13 08:21:00,
2013-09-13 03:26:00,56.9,52.4,30.09,NE,38,0.0,0.0,85,0.00,,,0.00,VWS V14.01,2013-09-13 08:26:00,
2013-09-13 03:31:00,56.8,52.3,30.09,NE,38,0.0,0.0,85,0.00,,,0.00,VWS V14.01,2013-09-13 08:31:00,
2013-09-13 03:36:00,56.7,52.6,30.09,NE,38,0.0,0.0,86,0.00,,,0.00,VWS V14.01,2013-09-13 08:36:00,
2013-09-13 03:41:00,56.7,52.6,30.09,NE,38,0.0,0.0,86,0.00,,,0.00,VWS V14.01,2013-09-13 08:41:00,
2013-09-13 03:46:00,56.6,52.5,30.09,NE,38,0.0,0.0,86,0.00,,,0.00,VWS V14.01,2013-09-13 08:46:00,
2013-09-13 03:51:00,56.6,52.8,30.10,NE,38,0.0,0.0,87,0.00,,,0.00,VWS V14.01,2013-09-13 08:51:00,
2013-09-13 03:56:00,56.6,52.8,30.10,NE,38,0.0,0.0,87,0.00,,,0.00,VWS V14.01,2013-09-13 08:56:00,
2013-09-13 04:01:00,56.6,52.8,30.10,NE,38,0.0,0.0,87,0.00,,,0.00,VWS V14.01,2013-09-13 09:01:00,
2013-09-13 04:06:00,56.6,53.1,30.10,NE,38,0.0,0.0,88,0.00,,,0.00,VWS V14.01,2013-09-13 09:06:00,
2013-09-13 04:11:00,56.6,53.1,30.10,NE,38,0.0,0.0,88,0.00,,,0.00,VWS V14.01,2013-09-13 09:11:00,
2013-09-13 04:16:00,56.6,53.1,30.10,NE,38,0.0,0.0,88,0.00,,,0.00,VWS V14.01,2013-09-13 09:16:00,
2013-09-13 04:21:00,56.6,53.1,30.10,NE,38,0.0,0.0,88,0.00,,,0.00,VWS V14.01,2013-09-13 09:21:00,
2013-09-13 04:26:00,56.6,53.1,30.10,NE,38,0.0,0.0,88,0.00,,,0.00,VWS V14.01,2013-09-13 09:26:00,
2013-09-13 04:31:00,56.5,53.0,30.11,NE,38,0.0,0.0,88,0.00,,,0.00,VWS V14.01,2013-09-13 09:31:00,
2013-09-13 04:36:00,56.5,53.0,30.11,NE,38,0.0,0.0,88,0.00,,,0.00,VWS V14.01,2013-09-13 09:36:00,
2013-09-13 04:41:00,56.5,53.0,30.11,NE,38,0.0,0.0,88,0.00,,,0.00,VWS V14.01,2013-09-13 09:41:00,
2013-09-13 04:46:00,56.5,53.3,30.11,NE,38,0.0,0.0,89,0.00,,,0.00,VWS V14.01,2013-09-13 09:46:00,
2013-09-13 04:51:00,56.5,53.3,30.11,NE,38,0.0,0.0,89,0.00,,,0.00,VWS V14.01,2013-09-13 09:51:00,
2013-09-13 04:56:00,56.4,53.2,30.11,NE,38,0.0,0.0,89,0.00,,,0.00,VWS V14.01,2013-09-13 09:56:00,
2013-09-13 05:01:00,56.6,53.7,30.12,NE,38,0.0,0.0,90,0.00,,,0.00,VWS V14.01,2013-09-13 10:01:00,
2013-09-13 05:06:00,56.8,53.9,30.12,NE,38,0.0,0.0,90,0.00,,,0.00,VWS V14.01,2013-09-13 10:06:00,
2013-09-13 05:11:00,57.1,53.9,30.12,NE,38,0.0,0.0,89,0.00,,,0.00,VWS V14.01,2013-09-13 10:11:00,
2013-09-13 05:16:00,57.4,54.2,30.12,NE,38,0.0,1.0,89,0.00,,,0.00,VWS V14.01,2013-09-13 10:16:00,
2013-09-13 05:21:00,57.6,54.1,30.12,NE,38,0.0,0.0,88,0.00,,,0.00,VWS V14.01,2013-09-13 10:21:00,
2013-09-13 05:26:00,57.6,54.1,30.12,NE,38,0.0,1.0,88,0.00,,,0.00,VWS V14.01,2013-09-13 10:26:00,
2013-09-13 05:31:00,57.6,54.1,30.12,NE,38,0.0,1.0,88,0.00,,,0.00,VWS V14.01,2013-09-13 10:31:00,
2013-09-13 05:36:00,57.6,53.8,30.13,NE,38,1.0,1.0,87,0.00,,,0.00,VWS V14.01,2013-09-13 10:36:00,
2013-09-13 05:41:00,57.5,53.7,30.13,NE,38,0.0,0.0,87,0.00,,,0.00,VWS V14.01,2013-09-13 10:41:00,
2013-09-13 05:46:00,57.5,53.3,30.13,NE,38,1.0,1.0,86,0.00,,,0.00,VWS V14.01,2013-09-13 10:46:00,
2013-09-13 05:51:00,57.4,52.6,30.13,NE,38,0.0,0.0,84,0.00,,,0.00,VWS V14.01,2013-09-13 10:51:00,
2013-09-13 05:56:00,57.3,52.2,30.14,NE,38,0.0,0.0,83,0.00,,,0.00,VWS V14.01,2013-09-13 10:56:00,
2013-09-13 06:01:00,57.3,52.2,30.14,NE,38,1.0,1.0,83,0.00,,,0.00,VWS V14.01,2013-09-13 11:01:00,
2013-09-13 06:06:00,57.2,52.1,30.14,NE,38,1.0,1.0,83,0.00,,,0.00,VWS V14.01,2013-09-13 11:06:00,
2013-09-13 06:11:00,57.1,51.7,30.15,NE,38,1.0,2.0,82,0.00,,,0.00,VWS V14.01,2013-09-13 11:11:00,
2013-09-13 06:16:00,57.1,51.7,30.15,NE,38,0.0,1.0,82,0.00,,,0.00,VWS V14.01,2013-09-13 11:16:00,
2013-09-13 06:21:00,57.0,51.2,30.15,NE,38,1.0,1.0,81,0.00,,,0.00,VWS V14.01,2013-09-13 11:21:00,
2013-09-13 06:26:00,56.9,51.1,30.15,NE,38,0.0,1.0,81,0.00,,,0.00,VWS V14.01,2013-09-13 11:26:00,
2013-09-13 06:31:00,56.9,51.1,30.15,NE,38,0.0,0.0,81,0.00,,,0.00,VWS V14.01,2013-09-13 11:31:00,
2013-09-13 06:36:00,56.8,51.0,30.15,NE,38,0.0,0.0,81,0.00,,,0.00,VWS V14.01,2013-09-13 11:36:00,
2013-09-13 06:41:00,56.7,50.9,30.15,NE,38,0.0,1.0,81,0.00,,,0.00,VWS V14.01,2013-09-13 11:41:00,
2013-09-13 06:46:00,56.6,50.8,30.15,NE,38,0.0,0.0,81,0.00,,,0.00,VWS V14.01,2013-09-13 11:46:00,
2013-09-13 06:51:00,56.6,51.2,30.15,NE,38,0.0,1.0,82,0.00,,,0.00,VWS V14.01,2013-09-13 11:51:00,
2013-09-13 06:56:00,56.4,51.0,30.15,NE,38,0.0,1.0,82,0.00,,,0.00,VWS V14.01,2013-09-13 11:56:00,
2013-09-13 07:01:00,56.4,51.0,30.15,NE,38,0.0,0.0,82,0.00,,,0.00,VWS V14.01,2013-09-13 12:01:00,
2013-09-13 07:06:00,56.4,51.0,30.16,NE,38,1.0,1.0,82,0.00,,,0.00,VWS V14.01,2013-09-13 12:06:00,
2013-09-13 07:11:00,56.3,50.9,30.16,SSW,206,0.0,0.0,82,0.00,,,0.00,VWS V14.01,2013-09-13 12:11:00,
2013-09-13 07:16:00,56.4,51.0,30.16,SSW,206,0.0,1.0,82,0.00,,,0.00,VWS V14.01,2013-09-13 12:16:00,
2013-09-13 07:21:00,56.5,51.1,30.16,SSW,206,0.0,0.0,82,0.00,,,0.00,VWS V14.01,2013-09-13 12:21:00,
2013-09-13 07:26:00,56.7,50.9,30.16,SSW,206,0.0,1.0,81,0.00,,,0.00,VWS V14.01,2013-09-13 12:26:00,
2013-09-13 07:31:00,56.8,50.7,30.16,South,185,0.0,1.0,80,0.00,,,0.00,VWS V14.01,2013-09-13 12:31:00,
2013-09-13 07:36:00,56.9,50.5,30.16,NNE,22,1.0,3.0,79,0.00,,,0.00,VWS V14.01,2013-09-13 12:36:00,
2013-09-13 07:41:00,57.1,50.7,30.16,NNE,23,1.0,2.0,79,0.00,,,0.00,VWS V14.01,2013-09-13 12:41:00,
2013-09-13 07:46:00,57.3,50.5,30.16,NNE,23,1.0,2.0,78,0.00,,,0.00,VWS V14.01,2013-09-13 12:46:00,
2013-09-13 07:51:00,57.4,50.3,30.16,NNE,27,0.0,1.0,77,0.00,,,0.00,VWS V14.01,2013-09-13 12:51:00,
2013-09-13 07:56:00,57.6,50.5,30.16,NNE,27,0.0,2.0,77,0.00,,,0.00,VWS V14.01,2013-09-13 12:56:00,
2013-09-13 08:01:00,57.7,50.2,30.16,NE,54,1.0,4.0,76,0.00,,,0.00,VWS V14.01,2013-09-13 13:01:00,
2013-09-13 08:06:00,57.7,50.2,30.16,NE,54,0.0,3.0,76,0.00,,,0.00,VWS V14.01,2013-09-13 13:06:00,
2013-09-13 08:11:00,57.8,49.6,30.16,East,98,2.0,3.0,74,0.00,,,0.00,VWS V14.01,2013-09-13 13:11:00,
2013-09-13 08:16:00,57.8,49.2,30.17,NNE,18,3.0,3.0,73,0.00,,,0.00,VWS V14.01,2013-09-13 13:16:00,
2013-09-13 08:21:00,57.8,49.6,30.17,NE,44,2.0,3.0,74,0.00,,,0.00,VWS V14.01,2013-09-13 13:21:00,
2013-09-13 08:26:00,57.9,49.7,30.17,NE,43,1.0,2.0,74,0.00,,,0.00,VWS V14.01,2013-09-13 13:26:00,
2013-09-13 08:31:00,58.0,49.8,30.17,ENE,76,2.0,3.0,74,0.00,,,0.00,VWS V14.01,2013-09-13 13:31:00,
2013-09-13 08:36:00,58.1,49.5,30.17,NE,56,2.0,3.0,73,0.00,,,0.00,VWS V14.01,2013-09-13 13:36:00,
2013-09-13 08:41:00,58.3,49.0,30.17,NE,45,2.0,4.0,71,0.00,,,0.00,VWS V14.01,2013-09-13 13:41:00,
2013-09-13 08:46:00,58.5,48.4,30.17,ENE,76,2.0,5.0,69,0.00,,,0.00,VWS V14.01,2013-09-13 13:46:00,
2013-09-13 08:51:00,58.6,48.5,30.17,East,84,1.0,2.0,69,0.00,,,0.00,VWS V14.01,2013-09-13 13:51:00,
2013-09-13 08:56:00,58.7,49.0,30.17,ENE,65,1.0,2.0,70,0.00,,,0.00,VWS V14.01,2013-09-13 13:56:00,
2013-09-13 09:01:00,59.0,48.5,30.17,NNE,28,3.0,3.0,68,0.00,,,0.00,VWS V14.01,2013-09-13 14:01:00,
2013-09-13 09:06:00,59.0,48.5,30.18,NE,40,2.0,3.0,68,0.00,,,0.00,VWS V14.01,2013-09-13 14:06:00,
2013-09-13 09:11:00,59.1,49.0,30.18,NE,50,2.0,3.0,69,0.00,,,0.00,VWS V14.01,2013-09-13 14:11:00,
2013-09-13 09:16:00,59.4,48.0,30.18,NE,35,2.0,4.0,66,0.00,,,0.00,VWS V14.01,2013-09-13 14:16:00,
2013-09-13 09:21:00,59.5,48.2,30.18,East,83,2.0,3.0,66,0.00,,,0.00,VWS V14.01,2013-09-13 14:21:00,
2013-09-13 09:26:00,59.6,48.2,30.19,South,182,0.0,1.0,66,0.00,,,0.00,VWS V14.01,2013-09-13 14:26:00,
2013-09-13 09:31:00,59.8,48.4,30.19,South,171,2.0,2.0,66,0.00,,,0.00,VWS V14.01,2013-09-13 14:31:00,
2013-09-13 09:36:00,60.2,48.4,30.19,ESE,105,1.0,3.0,65,0.00,,,0.00,VWS V14.01,2013-09-13 14:36:00,
2013-09-13 09:41:00,60.4,48.2,30.19,ESE,117,1.0,1.0,64,0.00,,,0.00,VWS V14.01,2013-09-13 14:41:00,
2013-09-13 09:46:00,60.5,47.9,30.19,NE,40,1.0,2.0,63,0.00,,,0.00,VWS V14.01,2013-09-13 14:46:00,
2013-09-13 09:51:00,60.6,47.5,30.19,NNE,22,1.0,3.0,62,0.00,,,0.00,VWS V14.01,2013-09-13 14:51:00,
2013-09-13 09:56:00,60.7,47.6,30.19,ENE,68,2.0,2.0,62,0.00,,,0.00,VWS V14.01,2013-09-13 14:56:00,
2013-09-13 10:00:00,61.1,47.6,30.19,ENE,68,2.0,2.0,61,0.00,,,0.00,VWS V14.01,2013-09-13 15:00:00,
2013-09-13 10:05:00,61.5,47.9,30.19,NE,56,2.0,2.0,61,0.00,,,0.00,VWS V14.01,2013-09-13 15:05:00,
2013-09-13 10:10:00,61.7,48.1,30.18,NE,39,0.0,1.0,61,0.00,,,0.00,VWS V14.01,2013-09-13 15:10:00,
2013-09-13 10:15:00,62.2,48.2,30.19,NE,39,0.0,1.0,60,0.00,,,0.00,VWS V14.01,2013-09-13 15:15:00,
2013-09-13 10:20:00,62.6,49.4,30.18,NNW,343,0.0,1.0,62,0.00,,,0.00,VWS V14.01,2013-09-13 15:20:00,
2013-09-13 10:25:00,63.0,49.4,30.19,NNE,12,1.0,1.0,61,0.00,,,0.00,VWS V14.01,2013-09-13 15:25:00,
2013-09-13 10:30:00,63.5,49.4,30.18,NNE,13,0.0,1.0,60,0.00,,,0.00,VWS V14.01,2013-09-13 15:30:00,
2013-09-13 10:35:00,63.9,48.8,30.18,NNE,13,0.0,0.0,58,0.00,,,0.00,VWS V14.01,2013-09-13 15:35:00,
2013-09-13 10:40:00,64.1,49.5,30.18,NNE,15,0.0,1.0,59,0.00,,,0.00,VWS V14.01,2013-09-13 15:40:00,
2013-09-13 10:45:00,64.4,47.9,30.18,NNE,15,0.0,1.0,55,0.00,,,0.00,VWS V14.01,2013-09-13 15:45:00,
2013-09-13 10:50:00,64.3,47.8,30.18,NNE,16,2.0,3.0,55,0.00,,,0.00,VWS V14.01,2013-09-13 15:50:00,
2013-09-13 10:55:00,64.2,48.2,30.18,NNE,29,0.0,1.0,56,0.00,,,0.00,VWS V14.01,2013-09-13 15:55:00,
2013-09-13 11:00:00,64.3,49.2,30.18,NNE,29,0.0,0.0,58,0.00,,,0.00,VWS V14.01,2013-09-13 16:00:00,
2013-09-13 11:05:00,64.5,48.0,30.18,NNE,30,0.0,2.0,55,0.00,,,0.00,VWS V14.01,2013-09-13 16:05:00,
2013-09-13 11:10:00,64.6,48.1,30.18,NNE,30,0.0,0.0,55,0.00,,,0.00,VWS V14.01,2013-09-13 16:10:00,
2013-09-13 11:15:00,64.7,48.2,30.18,NE,36,0.0,0.0,55,0.00,,,0.00,VWS V14.01,2013-09-13 16:15:00,
2013-09-13 11:20:00,64.8,47.8,30.18,NNE,32,0.0,0.0,54,0.00,,,0.00,VWS V14.01,2013-09-13 16:20:00,
2013-09-13 11:25:00,64.8,47.3,30.18,SW,215,3.0,3.0,53,0.00,,,0.00,VWS V14.01,2013-09-13 16:25:00,
2013-09-13 11:30:00,64.8,47.3,30.18,SW,227,1.0,1.0,53,0.00,,,0.00,VWS V14.01,2013-09-13 16:30:00,
2013-09-13 11:35:00,64.9,47.4,30.18,NNE,18,1.0,2.0,53,0.00,,,0.00,VWS V14.01,2013-09-13 16:35:00,
2013-09-13 11:40:00,64.8,47.3,30.18,NNE,19,0.0,1.0,53,0.00,,,0.00,VWS V14.01,2013-09-13 16:40:00,
2013-09-13 11:45:00,64.9,46.9,30.17,NNE,19,1.0,3.0,52,0.00,,,0.00,VWS V14.01,2013-09-13 16:45:00,
2013-09-13 11:50:00,65.0,45.9,30.17,NNE,19,2.0,3.0,50,0.00,,,0.00,VWS V14.01,2013-09-13 16:50:00,
2013-09-13 11:55:00,65.1,46.0,30.17,NNE,19,0.0,0.0,50,0.00,,,0.00,VWS V14.01,2013-09-13 16:55:00,
2013-09-13 12:00:00,65.1,45.5,30.17,NNE,19,1.0,2.0,49,0.00,,,0.00,VWS V14.01,2013-09-13 17:00:00,
2013-09-13 12:05:00,65.1,46.0,30.17,NNE,19,0.0,1.0,50,0.00,,,0.00,VWS V14.01,2013-09-13 17:05:00,
2013-09-13 12:10:00,65.2,46.6,30.17,NNE,19,0.0,0.0,51,0.00,,,0.00,VWS V14.01,2013-09-13 17:10:00,
2013-09-13 12:15:00,65.3,46.2,30.17,ESE,109,0.0,0.0,50,0.00,,,0.00,VWS V14.01,2013-09-13 17:15:00,
2013-09-13 12:20:00,65.5,45.8,30.17,ESE,109,1.0,2.0,49,0.00,,,0.00,VWS V14.01,2013-09-13 17:20:00,
2013-09-13 12:25:00,65.7,45.5,30.16,ESE,109,0.0,0.0,48,0.00,,,0.00,VWS V14.01,2013-09-13 17:25:00,
2013-09-13 12:30:00,65.7,44.9,30.16,ESE,109,0.0,0.0,47,0.00,,,0.00,VWS V14.01,2013-09-13 17:30:00,
2013-09-13 12:35:00,65.9,44.6,30.16,NE,48,0.0,2.0,46,0.00,,,0.00,VWS V14.01,2013-09-13 17:35:00,
2013-09-13 12:40:00,66.1,44.2,30.16,NE,48,2.0,2.0,45,0.00,,,0.00,VWS V14.01,2013-09-13 17:40:00,
2013-09-13 12:45:00,66.1,44.2,30.16,NNE,32,0.0,0.0,45,0.00,,,0.00,VWS V14.01,2013-09-13 17:45:00,
2013-09-13 12:50:00,66.1,44.2,30.16,NNE,31,3.0,3.0,45,0.00,,,0.00,VWS V14.01,2013-09-13 17:50:00,
2013-09-13 12:55:00,66.2,43.7,30.16,NNE,30,0.0,0.0,44,0.00,,,0.00,VWS V14.01,2013-09-13 17:55:00,
2013-09-13 13:00:00,66.3,44.3,30.16,NNE,30,1.0,1.0,45,0.00,,,0.00,VWS V14.01,2013-09-13 18:00:00,
2013-09-13 13:05:00,66.5,42.7,30.16,NNE,30,2.0,2.0,42,0.00,,,0.00,VWS V14.01,2013-09-13 18:05:00,
2013-09-13 13:10:00,66.6,44.0,30.15,NNE,30,1.0,1.0,44,0.00,,,0.00,VWS V14.01,2013-09-13 18:10:00,
2013-09-13 13:15:00,66.7,43.5,30.15,NNE,30,0.0,1.0,43,0.00,,,0.00,VWS V14.01,2013-09-13 18:15:00,
2013-09-13 13:20:00,66.8,43.6,30.15,NNE,30,0.0,1.0,43,0.00,,,0.00,VWS V14.01,2013-09-13 18:20:00,
2013-09-13 13:25:00,67.0,43.2,30.15,NE,36,2.0,3.0,42,0.00,,,0.00,VWS V14.01,2013-09-13 18:25:00,
2013-09-13 13:30:00,67.0,43.2,30.15,NE,36,2.0,3.0,42,0.00,,,0.00,VWS V14.01,2013-09-13 18:30:00,
2013-09-13 13:35:00,67.2,43.4,30.14,NE,36,0.0,1.0,42,0.00,,,0.00,VWS V14.01,2013-09-13 18:35:00,
2013-09-13 13:40:00,67.2,43.4,30.14,NE,46,2.0,2.0,42,0.00,,,0.00,VWS V14.01,2013-09-13 18:40:00,
2013-09-13 13:45:00,67.3,43.5,30.15,NE,46,0.0,1.0,42,0.00,,,0.00,VWS V14.01,2013-09-13 18:45:00,
2013-09-13 13:50:00,67.3,42.8,30.14,NE,46,0.0,1.0,41,0.00,,,0.00,VWS V14.01,2013-09-13 18:50:00,
2013-09-13 13:55:00,67.3,43.5,30.14,NE,52,2.0,4.0,42,0.00,,,0.00,VWS V14.01,2013-09-13 18:55:00,
2013-09-13 14:00:00,67.6,44.3,30.14,East,80,0.0,0.0,43,0.00,,,0.00,VWS V14.01,2013-09-13 19:00:00,
2013-09-13 14:05:00,67.8,45.1,30.14,East,80,0.0,0.0,44,0.00,,,0.00,VWS V14.01,2013-09-13 19:05:00,
2013-09-13 14:10:00,68.0,44.7,30.14,East,80,0.0,0.0,43,0.00,,,0.00,VWS V14.01,2013-09-13 19:10:00,
2013-09-13 14:15:00,68.0,45.3,30.14,East,80,0.0,0.0,44,0.00,,,0.00,VWS V14.01,2013-09-13 19:15:00,
2013-09-13 14:20:00,68.1,44.8,30.13,East,80,1.0,1.0,43,0.00,,,0.00,VWS V14.01,2013-09-13 19:20:00,
2013-09-13 14:25:00,68.2,44.9,30.14,ENE,71,0.0,0.0,43,0.00,,,0.00,VWS V14.01,2013-09-13 19:25:00,
2013-09-13 14:30:00,68.3,44.3,30.13,ENE,75,0.0,1.0,42,0.00,,,0.00,VWS V14.01,2013-09-13 19:30:00,
2013-09-13 14:35:00,68.4,45.7,30.13,ENE,75,0.0,0.0,44,0.00,,,0.00,VWS V14.01,2013-09-13 19:35:00,
2013-09-13 14:40:00,68.4,45.0,30.13,ENE,75,0.0,0.0,43,0.00,,,0.00,VWS V14.01,2013-09-13 19:40:00,
2013-09-13 14:45:00,68.5,45.1,30.13,ENE,75,0.0,0.0,43,0.00,,,0.00,VWS V14.01,2013-09-13 19:45:00,
2013-09-13 14:50:00,68.5,44.5,30.12,ENE,75,0.0,0.0,42,0.00,,,0.00,VWS V14.01,2013-09-13 19:50:00,
2013-09-13 14:55:00,68.8,44.8,30.12,SSE,165,0.0,0.0,42,0.00,,,0.00,VWS V14.01,2013-09-13 19:55:00,
2013-09-13 15:00:00,68.8,44.8,30.12,SSE,168,1.0,1.0,42,0.00,,,0.00,VWS V14.01,2013-09-13 20:00:00,
2013-09-13 15:05:00,68.9,44.9,30.12,SE,140,2.0,2.0,42,0.00,,,0.00,VWS V14.01,2013-09-13 20:05:00,
2013-09-13 15:10:00,68.9,44.2,30.12,SE,140,0.0,0.0,41,0.00,,,0.00,VWS V14.01,2013-09-13 20:10:00,
2013-09-13 15:15:00,69.0,45.0,30.12,NE,42,0.0,0.0,42,0.00,,,0.00,VWS V14.01,2013-09-13 20:15:00,
2013-09-13 15:20:00,68.9,44.2,30.12,NE,42,0.0,0.0,41,0.00,,,0.00,VWS V14.01,2013-09-13 20:20:00,
2013-09-13 15:25:00,68.8,44.8,30.12,NE,42,0.0,1.0,42,0.00,,,0.00,VWS V14.01,2013-09-13 20:25:00,
2013-09-13 15:30:00,68.8,44.8,30.12,NE,42,0.0,1.0,42,0.00,,,0.00,VWS V14.01,2013-09-13 20:30:00,
2013-09-13 15:35:00,68.8,42.9,30.12,NE,42,1.0,1.0,39,0.00,,,0.00,VWS V14.01,2013-09-13 20:35:00,
2013-09-13 15:40:00,69.0,43.7,30.12,NE,42,0.0,2.0,40,0.00,,,0.00,VWS V14.01,2013-09-13 20:40:00,
2013-09-13 15:45:00,69.0,43.7,30.11,NE,42,4.0,4.0,40,0.00,,,0.00,VWS V14.01,2013-09-13 20:45:00,
2013-09-13 15:50:00,68.9,43.6,30.12,NE,40,2.0,3.0,40,0.00,,,0.00,VWS V14.01,2013-09-13 20:50:00,
2013-09-13 15:55:00,68.9,43.0,30.11,NE,40,0.0,1.0,39,0.00,,,0.00,VWS V14.01,2013-09-13 20:55:00,
2013-09-13 16:00:00,69.0,43.0,30.11,NE,40,0.0,2.0,39,0.00,,,0.00,VWS V14.01,2013-09-13 21:00:00,
2013-09-13 16:05:00,69.0,42.4,30.11,NE,52,3.0,3.0,38,0.00,,,0.00,VWS V14.01,2013-09-13 21:05:00,
2013-09-13 16:10:00,69.0,43.0,30.11,NE,52,0.0,2.0,39,0.00,,,0.00,VWS V14.01,2013-09-13 21:10:00,
2013-09-13 16:15:00,69.0,41.7,30.11,NE,52,0.0,1.0,37,0.00,,,0.00,VWS V14.01,2013-09-13 21:15:00,
2013-09-13 16:20:00,69.0,42.4,30.11,NE,52,0.0,1.0,38,0.00,,,0.00,VWS V14.01,2013-09-13 21:20:00,
2013-09-13 16:25:00,69.0,42.4,30.11,NE,52,0.0,1.0,38,0.00,,,0.00,VWS V14.01,2013-09-13 21:25:00,
2013-09-13 16:30:00,69.0,42.4,30.11,NE,52,0.0,1.0,38,0.00,,,0.00,VWS V14.01,2013-09-13 21:30:00,
2013-09-13 16:35:00,69.0,41.7,30.11,NE,52,0.0,2.0,37,0.00,,,0.00,VWS V14.01,2013-09-13 21:35:00,
2013-09-13 16:40:00,69.0,42.4,30.11,NE,52,1.0,3.0,38,0.00,,,0.00,VWS V14.01,2013-09-13 21:40:00,
2013-09-13 16:45:00,69.1,42.5,30.11,NE,52,1.0,2.0,38,0.00,,,0.00,VWS V14.01,2013-09-13 21:45:00,
2013-09-13 16:50:00,69.0,41.0,30.11,NE,52,3.0,3.0,36,0.00,,,0.00,VWS V14.01,2013-09-13 21:50:00,
2013-09-13 16:55:00,68.9,40.9,30.11,NE,52,0.0,1.0,36,0.00,,,0.00,VWS V14.01,2013-09-13 21:55:00,
2013-09-13 17:00:00,68.8,42.2,30.11,NE,52,2.0,3.0,38,0.00,,,0.00,VWS V14.01,2013-09-13 22:00:00,
2013-09-13 17:05:00,68.7,42.1,30.11,NE,52,0.0,1.0,38,0.00,,,0.00,VWS V14.01,2013-09-13 22:05:00,
2013-09-13 17:10:00,68.7,42.1,30.11,NE,52,0.0,0.0,38,0.00,,,0.00,VWS V14.01,2013-09-13 22:10:00,
2013-09-13 17:15:00,68.7,42.8,30.10,NE,52,0.0,0.0,39,0.00,,,0.00,VWS V14.01,2013-09-13 22:15:00,
2013-09-13 17:20:00,68.7,42.8,30.10,NE,52,0.0,0.0,39,0.00,,,0.00,VWS V14.01,2013-09-13 22:20:00,
2013-09-13 17:25:00,68.6,42.7,30.10,NE,52,0.0,0.0,39,0.00,,,0.00,VWS V14.01,2013-09-13 22:25:00,
2013-09-13 17:30:00,68.5,41.9,30.10,NE,52,0.0,0.0,38,0.00,,,0.00,VWS V14.01,2013-09-13 22:30:00,
2013-09-13 17:35:00,68.4,41.8,30.10,ENE,70,1.0,2.0,38,0.00,,,0.00,VWS V14.01,2013-09-13 22:35:00,
2013-09-13 17:39:00,68.4,41.8,30.11,ENE,70,1.0,1.0,38,0.00,,,0.00,VWS V14.01,2013-09-13 22:39:00,
2013-09-13 17:44:00,68.3,42.4,30.11,ENE,70,0.0,1.0,39,0.00,,,0.00,VWS V14.01,2013-09-13 22:44:00,
2013-09-13 17:49:00,68.3,42.4,30.11,ENE,70,0.0,1.0,39,0.00,,,0.00,VWS V14.01,2013-09-13 22:49:00,
2013-09-13 17:54:00,68.2,42.3,30.11,ENE,70,1.0,1.0,39,0.00,,,0.00,VWS V14.01,2013-09-13 22:54:00,
2013-09-13 17:59:00,68.1,42.2,30.11,ENE,70,0.0,0.0,39,0.00,,,0.00,VWS V14.01,2013-09-13 22:59:00,
2013-09-13 18:04:00,68.0,42.1,30.11,ENE,70,0.0,0.0,39,0.00,,,0.00,VWS V14.01,2013-09-13 23:04:00,
2013-09-13 18:09:00,67.9,42.1,30.11,ENE,70,0.0,0.0,39,0.00,,,0.00,VWS V14.01,2013-09-13 23:09:00,
2013-09-13 18:14:00,67.8,42.6,30.11,ENE,70,0.0,0.0,40,0.00,,,0.00,VWS V14.01,2013-09-13 23:14:00,
2013-09-13 18:19:00,67.7,45.6,30.11,ENE,70,0.0,0.0,45,0.00,,,0.00,VWS V14.01,2013-09-13 23:19:00,
2013-09-13 18:24:00,67.5,43.0,30.11,ENE,70,0.0,1.0,41,0.00,,,0.00,VWS V14.01,2013-09-13 23:24:00,
2013-09-13 18:29:00,67.3,43.5,30.11,ENE,70,0.0,0.0,42,0.00,,,0.00,VWS V14.01,2013-09-13 23:29:00,
2013-09-13 18:34:00,67.1,43.9,30.11,ENE,70,0.0,0.0,43,0.00,,,0.00,VWS V14.01,2013-09-13 23:34:00,
2013-09-13 18:39:00,66.8,43.6,30.11,ENE,70,0.0,1.0,43,0.00,,,0.00,VWS V14.01,2013-09-13 23:39:00,
2013-09-13 18:44:00,66.6,44.0,30.11,ENE,70,0.0,0.0,44,0.00,,,0.00,VWS V14.01,2013-09-13 23:44:00,
2013-09-13 18:49:00,66.4,46.7,30.11,ENE,70,0.0,0.0,49,0.00,,,0.00,VWS V14.01,2013-09-13 23:49:00,
2013-09-13 18:54:00,66.2,47.6,30.11,ENE,70,0.0,0.0,51,0.00,,,0.00,VWS V14.01,2013-09-13 23:54:00,
2013-09-13 18:59:00,66.0,47.9,30.11,ENE,70,0.0,0.0,52,0.00,,,0.00,VWS V14.01,2013-09-13 23:59:00,
2013-09-13 19:04:00,65.7,48.1,30.11,ENE,70,0.0,0.0,53,0.00,,,0.00,VWS V14.01,2013-09-14 00:04:00,
2013-09-13 19:09:00,65.3,44.6,30.11,ENE,70,0.0,0.0,47,0.00,,,0.00,VWS V14.01,2013-09-14 00:09:00,
2013-09-13 19:14:00,65.0,47.5,30.11,ENE,70,0.0,0.0,53,0.00,,,0.00,VWS V14.01,2013-09-14 00:14:00,
2013-09-13 19:19:00,64.7,47.7,30.11,ENE,70,0.0,0.0,54,0.00,,,0.00,VWS V14.01,2013-09-14 00:19:00,
2013-09-13 19:24:00,64.4,47.9,30.11,ENE,70,0.0,0.0,55,0.00,,,0.00,VWS V14.01,2013-09-14 00:24:00,
2013-09-13 19:29:00,64.0,48.0,30.11,ENE,70,0.0,0.0,56,0.00,,,0.00,VWS V14.01,2013-09-14 00:29:00,
2013-09-13 19:34:00,63.6,48.1,30.11,ENE,70,0.0,0.0,57,0.00,,,0.00,VWS V14.01,2013-09-14 00:34:00,
2013-09-13 19:39:00,63.2,45.8,30.11,ENE,70,0.0,0.0,53,0.00,,,0.00,VWS V14.01,2013-09-14 00:39:00,
2013-09-13 19:44:00,62.8,47.8,30.11,ENE,70,0.0,0.0,58,0.00,,,0.00,VWS V14.01,2013-09-14 00:44:00,
2013-09-13 19:49:00,62.4,47.9,30.12,ENE,70,0.0,0.0,59,0.00,,,0.00,VWS V14.01,2013-09-14 00:49:00,
2013-09-13 19:54:00,62.0,48.0,30.11,ENE,70,0.0,0.0,60,0.00,,,0.00,VWS V14.01,2013-09-14 00:54:00,
2013-09-13 19:59:00,61.5,44.7,30.12,ENE,70,0.0,0.0,54,0.00,,,0.00,VWS V14.01,2013-09-14 00:59:00,
2013-09-13 20:05:00,61.2,47.2,30.12,ENE,70,0.0,0.0,60,0.00,,,0.00,VWS V14.01,2013-09-14 01:05:00,
2013-09-13 20:09:00,60.8,47.7,30.12,ENE,70,0.0,0.0,62,0.00,,,0.00,VWS V14.01,2013-09-14 01:09:00,
2013-09-13 20:14:00,60.5,47.9,30.12,ENE,70,0.0,0.0,63,0.00,,,0.00,VWS V14.01,2013-09-14 01:14:00,
2013-09-13 20:19:00,60.1,47.9,30.12,ENE,70,0.0,0.0,64,0.00,,,0.00,VWS V14.01,2013-09-14 01:19:00,
2013-09-13 20:24:00,59.7,44.5,30.12,ENE,70,0.0,0.0,57,0.00,,,0.00,VWS V14.01,2013-09-14 01:24:00,
2013-09-13 20:29:00,59.5,44.3,30.12,ENE,70,0.0,0.0,57,0.00,,,0.00,VWS V14.01,2013-09-14 01:29:00,
2013-09-13 20:34:00,59.3,45.4,30.13,ENE,70,0.0,0.0,60,0.00,,,0.00,VWS V14.01,2013-09-14 01:34:00,
2013-09-13 20:39:00,59.1,43.9,30.13,ENE,70,0.0,0.0,57,0.00,,,0.00,VWS V14.01,2013-09-14 01:39:00,
2013-09-13 20:44:00,59.0,46.0,30.13,ENE,70,0.0,0.0,62,0.00,,,0.00,VWS V14.01,2013-09-14 01:44:00,
2013-09-13 20:49:00,58.9,47.2,30.13,ENE,70,0.0,0.0,65,0.00,,,0.00,VWS V14.01,2013-09-14 01:49:00,
2013-09-13 20:54:00,58.7,44.4,30.13,ENE,70,0.0,0.0,59,0.00,,,0.00,VWS V14.01,2013-09-14 01:54:00,
2013-09-13 20:59:00,58.6,44.3,30.13,ENE,70,0.0,0.0,59,0.00,,,0.00,VWS V14.01,2013-09-14 01:59:00,
2013-09-13 21:04:00,58.5,44.2,30.12,ENE,70,0.0,0.0,59,0.00,,,0.00,VWS V14.01,2013-09-14 02:04:00,
2013-09-13 21:09:00,58.4,47.1,30.12,ENE,70,0.0,0.0,66,0.00,,,0.00,VWS V14.01,2013-09-14 02:09:00,
2013-09-13 21:14:00,58.3,47.4,30.12,ENE,70,0.0,0.0,67,0.00,,,0.00,VWS V14.01,2013-09-14 02:14:00,
2013-09-13 21:19:00,58.0,46.3,30.12,ENE,70,0.0,0.0,65,0.00,,,0.00,VWS V14.01,2013-09-14 02:19:00,
2013-09-13 21:24:00,57.8,46.1,30.12,ENE,70,0.0,0.0,65,0.00,,,0.00,VWS V14.01,2013-09-14 02:24:00,
2013-09-13 21:29:00,57.7,46.4,30.12,ENE,70,0.0,0.0,66,0.00,,,0.00,VWS V14.01,2013-09-14 02:29:00,
2013-09-13 21:34:00,57.6,47.1,30.13,ENE,70,0.0,0.0,68,0.00,,,0.00,VWS V14.01,2013-09-14 02:34:00,
2013-09-13 21:39:00,57.3,47.2,30.13,ENE,70,0.0,0.0,69,0.00,,,0.00,VWS V14.01,2013-09-14 02:39:00,
2013-09-13 21:44:00,57.2,47.1,30.13,ENE,70,0.0,0.0,69,0.00,,,0.00,VWS V14.01,2013-09-14 02:44:00,
2013-09-13 21:49:00,56.9,47.2,30.13,ENE,70,0.0,0.0,70,0.00,,,0.00,VWS V14.01,2013-09-14 02:49:00,
2013-09-13 21:54:00,56.7,47.0,30.13,ENE,70,0.0,0.0,70,0.00,,,0.00,VWS V14.01,2013-09-14 02:54:00,
2013-09-13 21:59:00,56.4,47.1,30.13,ENE,70,0.0,0.0,71,0.00,,,0.00,VWS V14.01,2013-09-14 02:59:00,
2013-09-13 22:04:00,56.2,47.3,30.13,ENE,70,0.0,0.0,72,0.00,,,0.00,VWS V14.01,2013-09-14 03:04:00,
2013-09-13 22:09:00,56.0,47.5,30.13,ENE,70,0.0,0.0,73,0.00,,,0.00,VWS V14.01,2013-09-14 03:09:00,
2013-09-13 22:15:00,55.7,46.8,30.13,ENE,70,0.0,0.0,72,0.00,,,0.00,VWS V14.01,2013-09-14 03:15:00,
2013-09-13 22:20:00,55.5,47.4,30.14,ENE,70,0.0,0.0,74,0.00,,,0.00,VWS V14.01,2013-09-14 03:20:00,
2013-09-13 22:25:00,55.3,46.8,30.14,ENE,70,0.0,0.0,73,0.00,,,0.00,VWS V14.01,2013-09-14 03:25:00,
2013-09-13 22:29:00,55.1,46.6,30.14,ENE,70,0.0,1.0,73,0.00,,,0.00,VWS V14.01,2013-09-14 03:29:00,
2013-09-13 22:34:00,55.3,46.1,30.14,NE,53,2.0,2.0,71,0.00,,,0.00,VWS V14.01,2013-09-14 03:34:00,
2013-09-13 22:39:00,56.2,46.6,30.13,NE,34,1.0,2.0,70,0.00,,,0.00,VWS V14.01,2013-09-14 03:39:00,
2013-09-13 22:44:00,56.8,46.8,30.14,NE,47,2.0,2.0,69,0.00,,,0.00,VWS V14.01,2013-09-14 03:44:00,
2013-09-13 22:49:00,57.2,46.8,30.14,NE,50,0.0,3.0,68,0.00,,,0.00,VWS V14.01,2013-09-14 03:49:00,
2013-09-13 22:54:00,57.3,47.2,30.14,NE,39,0.0,1.0,69,0.00,,,0.00,VWS V14.01,2013-09-14 03:54:00,
2013-09-13 22:59:00,57.3,47.2,30.14,NE,35,0.0,1.0,69,0.00,,,0.00,VWS V14.01,2013-09-14 03:59:00,
2013-09-13 23:01:00,57.3,47.2,30.14,NE,35,0.0,1.0,69,0.00,,,0.00,VWS V14.01,2013-09-14 04:01:00,
2013-09-13 23:06:00,57.2,47.1,30.14,NE,53,1.0,2.0,69,0.00,,,0.00,VWS V14.01,2013-09-14 04:06:00,
2013-09-13 23:11:00,57.0,46.9,30.14,East,80,0.0,0.0,69,0.00,,,0.00,VWS V14.01,2013-09-14 04:11:00,
2013-09-13 23:16:00,56.9,47.6,30.14,East,80,0.0,0.0,71,0.00,,,0.00,VWS V14.01,2013-09-14 04:16:00,
2013-09-13 23:21:00,56.7,47.8,30.14,East,80,0.0,0.0,72,0.00,,,0.00,VWS V14.01,2013-09-14 04:21:00,
2013-09-13 23:26:00,56.5,47.6,30.14,East,80,0.0,0.0,72,0.00,,,0.00,VWS V14.01,2013-09-14 04:26:00,
2013-09-13 23:31:00,56.2,47.3,30.14,East,80,0.0,0.0,72,0.00,,,0.00,VWS V14.01,2013-09-14 04:31:00,
2013-09-13 23:36:00,55.9,47.4,30.15,East,80,0.0,0.0,73,0.00,,,0.00,VWS V14.01,2013-09-14 04:36:00,
2013-09-13 23:41:00,55.7,47.5,30.15,East,80,0.0,0.0,74,0.00,,,0.00,VWS V14.01,2013-09-14 04:41:00,
2013-09-13 23:46:00,55.5,47.4,30.15,East,80,0.0,0.0,74,0.00,,,0.00,VWS V14.01,2013-09-14 04:46:00,
2013-09-13 23:51:00,55.2,47.4,30.15,East,80,0.0,0.0,75,0.00,,,0.00,VWS V14.01,2013-09-14 04:51:00,
2013-09-13 23:56:00,54.9,47.5,30.15,East,80,0.0,0.0,76,0.00,,,0.00,VWS V14.01,2013-09-14 04:56:00,